User: anonymous   Login
Location: Unspecified
(0.0000°N, 0.0000°E)
Time: 02:56:38
(UTC+00:00)
Language:

TBA - TO BE ASSIGNED - Orbit

View from above orbital plane
View from above orbital plane
View from above satellite
View from above satellite

Ground track
Ground track

The orbit is defined by the following mean orbital elements,

1 68002U          26145.54288170 +.00000000 +00000-0 +62770-3 0 00007
2 68002  42.9990 335.2059 0001050 289.6271  70.4467 15.27596023    07
Epoch (UTC): 25 May 2026 13:01:44
Eccentricity: 0.0001050
inclination: 42.9990°
perigee height: 482 km
apogee height: 484 km
right ascension of ascending node: 335.2059°
argument of perigee: 289.6271°
revolutions per day: 15.27596023
mean anomaly at epoch: 70.4467°

The dashed part of the orbit path shows where the satellite is in the earth's shadow,  

DLR